QPF
0.00 0.00 0.01 0.01 0.01 0.03 0.03 0.03 0.02 0.02 0.02 0.03 0.03 0.02 0.02 0.01 0.02 0.04 0.03 0.02 0.03 0.02 0.02 0.02 0.01 0.01 0.02 0.02 0.01 0.01 0.00 0.00 0.00 0.00 0.00 0.00 0.00 0.00 0.00 0.00 0.01 0.01 0.01 0.01 0.01 0.01 0.01 0.02 0.03
0.00 0.00 0.01 0.01 0.02 0.03 0.03 0.02 0.03 0.02 0.01 0.01 0.02 0.02 0.02 0.03 0.04 0.04 0.02 0.02 0.02 0.02 0.02 0.01 0.01 0.01 0.02 0.02 0.02 0.02 0.01 0.00 0.00 0.00 0.00 0.00 0.00 0.01 0.01 0.01 0.01 0.01 0.01 0.01 0.01 0.02 0.02 0.02 0.02
0.00 0.00 0.00 0.01 0.02 0.02 0.02 0.03 0.03 0.02 0.02 0.02 0.03 0.02 0.02 0.03 0.03 0.02 0.02 0.02 0.03 0.03 0.02 0.02 0.01 0.01 0.01 0.03 0.03 0.02 0.02 0.01 0.00 0.00 0.00 0.01 0.01 0.01 0.01 0.01 0.01 0.01 0.01 0.01 0.01 0.01 0.01 0.01 0.02
0.00 0.00 0.00 0.00 0.01 0.01 0.01 0.02 0.02 0.02 0.01 0.01 0.02 0.02 0.01 0.01 0.02 0.02 0.02 0.02 0.02 0.02 0.02 0.03 0.02 0.02 0.01 0.02 0.03 0.02 0.02 0.02 0.01 0.01 0.00 0.00 0.01 0.01 0.01 0.01 0.01 0.02 0.02 0.01 0.01 0.02 0.02 0.02 0.02
0.00 0.00 0.00 0.00 0.01 0.01 0.01 0.01 0.01 0.00 0.01 0.00 0.01 0.02 0.01 0.01 0.01 0.01 0.02 0.02 0.01 0.01 0.02 0.02 0.02 0.02 0.01 0.02 0.03 0.03 0.02 0.02 0.01 0.01 0.01 0.01 0.01 0.01 0.01 0.01 0.01 0.01 0.02 0.02 0.02 0.02 0.02 0.02 0.02
0.00 0.00 0.00 0.00 0.01 0.00 0.00 0.00 0.00 0.00 0.00 0.00 0.00 0.01 0.01 0.01 0.01 0.01 0.02 0.01 0.01 0.01 0.01 0.02 0.02 0.02 0.01 0.01 0.03 0.03 0.02 0.02 0.01 0.01 0.01 0.01 0.01 0.00 0.00 0.01 0.01 0.01 0.01 0.02 0.02 0.02 0.01 0.01 0.02
0.00 0.00 0.00 0.00 0.01 0.00 0.00 0.00 0.00 0.00 0.00 0.01 0.01 0.01 0.01 0.01 0.01 0.02 0.01 0.01 0.01 0.01 0.01 0.02 0.01 0.01 0.02 0.02 0.02 0.03 0.03 0.02 0.02 0.01 0.01 0.01 0.01 0.01 0.01 0.01 0.01 0.01 0.01 0.02 0.02 0.02 0.02 0.02 0.03
0.00 0.00 0.00 0.00 0.00 0.00 0.00 0.00 0.00 0.00 0.01 0.01 0.01 0.01 0.01 0.01 0.01 0.02 0.02 0.01 0.02 0.02 0.01 0.02 0.02 0.02 0.02 0.03 0.04 0.04 0.04 0.03 0.03 0.03 0.02 0.01 0.01 0.01 0.01 0.01 0.01 0.01 0.01 0.02 0.02 0.02 0.02 0.02 0.03
0.00 0.00 0.00 0.00 0.00 0.00 0.00 0.00 0.00 0.00 0.01 0.01 0.01 0.01 0.01 0.01 0.02 0.03 0.03 0.03 0.03 0.02 0.02 0.02 0.03 0.04 0.03 0.02 0.05 0.07 0.06 0.04 0.03 0.04 0.03 0.02 0.01 0.02 0.02 0.02 0.01 0.01 0.02 0.02 0.02 0.02 0.02 0.02 0.02
0.01 0.01 0.00 0.00 0.00 0.00 0.00 0.00 0.00 0.00 0.00 0.01 0.01 0.01 0.01 0.02 0.04 0.04 0.04 0.04 0.02 0.02 0.02 0.03 0.04 0.04 0.03 0.03 0.04 0.07 0.09 0.06 0.04 0.04 0.03 0.03 0.03 0.03 0.02 0.03 0.02 0.02 0.02 0.02 0.02 0.02 0.02 0.02 0.01
0.01 0.01 0.00 0.00 0.00 0.00 0.00 0.00 0.00 0.00 0.01 0.00 0.01 0.01 0.02 0.03 0.05 0.04 0.04 0.04 0.02 0.02 0.03 0.05 0.04 0.03 0.03 0.04 0.05 0.06 0.10 0.10 0.07 0.04 0.03 0.03 0.03 0.03 0.03 0.02 0.02 0.02 0.02 0.02 0.02 0.03 0.03 0.02 0.02
0.00 0.00 0.00 0.00 0.00 0.00 0.00 0.00 0.01 0.00 0.01 0.01 0.02 0.03 0.05 0.04 0.04 0.03 0.02 0.03 0.02 0.02 0.02 0.05 0.05 0.03 0.03 0.04 0.05 0.06 0.07 0.09 0.09 0.08 0.05 0.04 0.05 0.04 0.03 0.02 0.01 0.01 0.01 0.02 0.03 0.04 0.03 0.03 0.03
0.00 0.01 0.00 0.01 0.01 0.01 0.00 0.01 0.02 0.01 0.01 0.01 0.01 0.02 0.03 0.04 0.03 0.02 0.02 0.02 0.02 0.03 0.04 0.04 0.04 0.04 0.04 0.05 0.07 0.08 0.07 0.07 0.09 0.10 0.09 0.08 0.08 0.06 0.04 0.03 0.02 0.01 0.02 0.02 0.02 0.02 0.02 0.03 0.03
0.00 0.01 0.01 0.01 0.01 0.02 0.01 0.01 0.02 0.01 0.01 0.01 0.01 0.01 0.02 0.08 0.09 0.05 0.03 0.02 0.03 0.04 0.05 0.05 0.06 0.06 0.06 0.07 0.10 0.11 0.10 0.09 0.10 0.10 0.09 0.08 0.08 0.07 0.05 0.04 0.03 0.01 0.02 0.02 0.02 0.02 0.02 0.02 0.03
0.00 0.01 0.01 0.01 0.01 0.02 0.01 0.01 0.01 0.01 0.02 0.02 0.01 0.01 0.03 0.06 0.12 0.10 0.08 0.05 0.05 0.06 0.08 0.08 0.08 0.08 0.08 0.11 0.15 0.15 0.17 0.15 0.11 0.10 0.09 0.08 0.06 0.05 0.03 0.02 0.02 0.02 0.01 0.01 0.02 0.01 0.01 0.01 0.01
0.00 0.01 0.01 0.01 0.01 0.01 0.00 0.01 0.01 0.01 0.02 0.01 0.01 0.01 0.03 0.04 0.07 0.10 0.10 0.08 0.07 0.07 0.08 0.09 0.07 0.08 0.10 0.11 0.15 0.19 0.18 0.16 0.12 0.10 0.08 0.07 0.05 0.03 0.03 0.02 0.03 0.03 0.02 0.02 0.02 0.02 0.01 0.01 0.01
0.00 0.01 0.01 0.01 0.01 0.00 0.01 0.00 0.01 0.02 0.02 0.02 0.01 0.01 0.02 0.03 0.04 0.04 0.04 0.07 0.08 0.07 0.07 0.08 0.09 0.10 0.10 0.11 0.13 0.19 0.15 0.17 0.15 0.11 0.08 0.06 0.06 0.05 0.04 0.03 0.04 0.04 0.04 0.03 0.03 0.02 0.01 0.01 0.02
0.00 0.01 0.01 0.01 0.01 0.01 0.01 0.00 0.01 0.02 0.03 0.02 0.02 0.02 0.02 0.02 0.03 0.03 0.04 0.07 0.07 0.06 0.06 0.06 0.09 0.10 0.10 0.12 0.14 0.15 0.11 0.12 0.14 0.11 0.07 0.06 0.06 0.06 0.04 0.04 0.04 0.05 0.04 0.04 0.04 0.03 0.03 0.03 0.04
0.00 0.00 0.01 0.01 0.00 0.01 0.01 0.00 0.01 0.02 0.02 0.02 0.02 0.03 0.03 0.03 0.05 0.04 0.05 0.09 0.09 0.05 0.04 0.04 0.04 0.08 0.10 0.11 0.11 0.10 0.09 0.07 0.09 0.08 0.07 0.06 0.07 0.06 0.05 0.05 0.04 0.03 0.04 0.06 0.06 0.06 0.07 0.07 0.08
0.00 0.00 0.00 0.01 0.01 0.01 0.01 0.01 0.01 0.02 0.02 0.03 0.03 0.03 0.04 0.04 0.05 0.05 0.06 0.07 0.06 0.04 0.03 0.04 0.04 0.05 0.08 0.09 0.08 0.07 0.07 0.07 0.08 0.08 0.07 0.06 0.08 0.08 0.08 0.08 0.07 0.06 0.06 0.06 0.05 0.06 0.07 0.07 0.08
0.00 0.00 0.00 0.01 0.01 0.01 0.01 0.01 0.01 0.01 0.01 0.03 0.06 0.05 0.06 0.05 0.06 0.07 0.05 0.04 0.04 0.04 0.04 0.04 0.04 0.07 0.09 0.10 0.09 0.07 0.08 0.08 0.06 0.06 0.05 0.07 0.08 0.08 0.07 0.08 0.08 0.09 0.08 0.06 0.05 0.04 0.04 0.05 0.06
0.00 0.00 0.01 0.01 0.00 0.01 0.01 0.01 0.01 0.01 0.01 0.02 0.05 0.07 0.10 0.11 0.09 0.06 0.04 0.04 0.02 0.03 0.05 0.06 0.05 0.08 0.11 0.13 0.10 0.09 0.10 0.09 0.09 0.09 0.08 0.08 0.07 0.07 0.06 0.06 0.06 0.07 0.07 0.05 0.05 0.05 0.04 0.04 0.05
0.00 0.00 0.00 0.00 0.00 0.01 0.01 0.00 0.01 0.01 0.01 0.01 0.04 0.08 0.10 0.09 0.05 0.03 0.04 0.04 0.03 0.03 0.06 0.08 0.10 0.10 0.11 0.11 0.11 0.12 0.14 0.14 0.13 0.11 0.08 0.08 0.09 0.09 0.07 0.05 0.05 0.04 0.04 0.03 0.04 0.05 0.05 0.05 0.05
0.00 0.01 0.00 0.00 0.00 0.00 0.00 0.00 0.01 0.01 0.01 0.01 0.02 0.02 0.04 0.05 0.05 0.04 0.04 0.03 0.05 0.05 0.06 0.08 0.11 0.11 0.11 0.13 0.15 0.13 0.13 0.13 0.12 0.09 0.07 0.08 0.08 0.10 0.09 0.07 0.05 0.04 0.03 0.04 0.04 0.05 0.06 0.05 0.04
0.01 0.01 0.00 0.00 0.00 0.00 0.01 0.01 0.01 0.01 0.01 0.01 0.01 0.01 0.03 0.05 0.07 0.07 0.06 0.05 0.04 0.04 0.06 0.07 0.07 0.08 0.08 0.10 0.10 0.09 0.09 0.09 0.07 0.07 0.08 0.08 0.08 0.08 0.08 0.08 0.07 0.07 0.05 0.05 0.05 0.06 0.05 0.05 0.04
0.01 0.01 0.01 0.00 0.00 0.01 0.01 0.01 0.01 0.01 0.01 0.01 0.01 0.02 0.03 0.05 0.09 0.10 0.08 0.04 0.03 0.03 0.04 0.05 0.05 0.05 0.05 0.06 0.06 0.06 0.08 0.08 0.08 0.09 0.08 0.07 0.06 0.06 0.06 0.08 0.09 0.10 0.08 0.07 0.06 0.05 0.04 0.04 0.04
0.01 0.01 0.01 0.01 0.01 0.01 0.01 0.01 0.01 0.01 0.01 0.01 0.01 0.02 0.03 0.04 0.08 0.09 0.07 0.05 0.02 0.02 0.02 0.02 0.03 0.03 0.04 0.04 0.04 0.04 0.04 0.05 0.06 0.06 0.06 0.06 0.05 0.05 0.05 0.07 0.08 0.07 0.08 0.06 0.05 0.04 0.04 0.04 0.03
0.01 0.02 0.01 0.01 0.01 0.01 0.01 0.02 0.01 0.01 0.01 0.01 0.01 0.01 0.02 0.03 0.06 0.07 0.06 0.04 0.02 0.02 0.02 0.02 0.03 0.03 0.03 0.02 0.02 0.02 0.03 0.05 0.05 0.04 0.05 0.04 0.03 0.03 0.05 0.05 0.05 0.06 0.07 0.05 0.04 0.04 0.03 0.02 0.03
0.02 0.03 0.01 0.00 0.00 0.00 0.01 0.01 0.01 0.01 0.01 0.00 0.00 0.01 0.01 0.02 0.04 0.05 0.04 0.04 0.03 0.02 0.02 0.02 0.03 0.02 0.02 0.02 0.02 0.03 0.04 0.05 0.05 0.04 0.03 0.03 0.02 0.03 0.04 0.04 0.03 0.04 0.03 0.03 0.03 0.02 0.02 0.02 0.02
0.02 0.02 0.01 0.00 0.00 0.00 0.01 0.01 0.01 0.01 0.00 0.00 0.00 0.00 0.01 0.03 0.04 0.04 0.04 0.04 0.03 0.03 0.03 0.04 0.04 0.04 0.04 0.03 0.03 0.03 0.05 0.05 0.07 0.06 0.05 0.05 0.05 0.04 0.03 0.03 0.02 0.03 0.02 0.02 0.02 0.02 0.01 0.01 0.01
MSLP
1007.87 1008.95 1010.14 1011.24 1012.06 1012.47 1012.43 1011.98 1011.27 1010.44 1009.67 1009.07 1008.68 1008.48 1008.38 1008.28 1008.09 1007.76 1007.31 1006.81 1006.33 1005.98 1005.83 1005.89 1006.14 1006.50 1006.89 1007.23 1007.50 1007.70 1007.88 1008.09 1008.40 1008.85 1009.43 1010.10 1010.78 1011.41 1011.93 1012.31 1012.57 1012.75 1012.91 1013.11 1013.38 1013.72 1014.11 1014.50 1014.85
1008.24 1009.50 1010.78 1011.87 1012.58 1012.78 1012.48 1011.73 1010.72 1009.63 1008.64 1007.89 1007.43 1007.21 1007.15 1007.15 1007.10 1006.93 1006.66 1006.33 1006.03 1005.83 1005.80 1005.94 1006.24 1006.62 1007.01 1007.35 1007.62 1007.82 1008.01 1008.24 1008.58 1009.04 1009.62 1010.27 1010.91 1011.49 1011.96 1012.29 1012.51 1012.67 1012.84 1013.05 1013.34 1013.70 1014.11 1014.50 1014.85
1008.75 1010.12 1011.43 1012.46 1013.01 1013.00 1012.44 1011.45 1010.21 1008.92 1007.80 1006.96 1006.45 1006.23 1006.22 1006.28 1006.33 1006.29 1006.16 1005.97 1005.81 1005.75 1005.83 1006.06 1006.42 1006.83 1007.24 1007.58 1007.84 1008.04 1008.23 1008.46 1008.79 1009.23 1009.77 1010.36 1010.95 1011.46 1011.87 1012.16 1012.37 1012.54 1012.72 1012.97 1013.28 1013.67 1014.08 1014.48 1014.82
1009.36 1010.78 1012.04 1012.94 1013.31 1013.10 1012.34 1011.17 1009.79 1008.42 1007.25 1006.40 1005.89 1005.69 1005.70 1005.81 1005.90 1005.92 1005.87 1005.78 1005.72 1005.76 1005.93 1006.25 1006.66 1007.11 1007.53 1007.88 1008.14 1008.33 1008.50 1008.71 1009.00 1009.39 1009.86 1010.39 1010.90 1011.35 1011.72 1012.00 1012.21 1012.40 1012.63 1012.92 1013.27 1013.67 1014.09 1014.48 1014.82
1010.02 1011.39 1012.53 1013.25 1013.44 1013.05 1012.16 1010.91 1009.51 1008.16 1007.04 1006.25 1005.80 1005.63 1005.66 1005.76 1005.85 1005.88 1005.84 1005.79 1005.78 1005.88 1006.12 1006.49 1006.94 1007.42 1007.86 1008.21 1008.46 1008.63 1008.77 1008.94 1009.17 1009.50 1009.91 1010.36 1010.81 1011.22 1011.57 1011.85 1012.09 1012.33 1012.61 1012.94 1013.32 1013.74 1014.16 1014.53 1014.84
1010.60 1011.84 1012.80 1013.33 1013.33 1012.82 1011.87 1010.64 1009.33 1008.11 1007.14 1006.47 1006.12 1006.00 1006.03 1006.11 1006.15 1006.13 1006.06 1005.99 1005.99 1006.11 1006.38 1006.77 1007.25 1007.74 1008.17 1008.51 1008.73 1008.88 1008.99 1009.11 1009.29 1009.56 1009.91 1010.31 1010.72 1011.11 1011.46 1011.76 1012.05 1012.34 1012.67 1013.04 1013.44 1013.86 1014.26 1014.60 1014.88
1011.02 1012.07 1012.81 1013.12 1012.96 1012.37 1011.44 1010.33 1009.20 1008.20 1007.44 1006.96 1006.72 1006.67 1006.70 1006.73 1006.70 1006.60 1006.46 1006.35 1006.32 1006.43 1006.69 1007.08 1007.55 1008.01 1008.42 1008.73 1008.93 1009.04 1009.11 1009.20 1009.35 1009.58 1009.90 1010.27 1010.66 1011.05 1011.41 1011.74 1012.07 1012.41 1012.78 1013.17 1013.58 1013.98 1014.35 1014.66 1014.90
1011.22 1012.04 1012.54 1012.65 1012.36 1011.75 1010.90 1009.96 1009.07 1008.34 1007.84 1007.55 1007.46 1007.46 1007.49 1007.47 1007.36 1007.17 1006.96 1006.79 1006.73 1006.80 1007.04 1007.40 1007.82 1008.25 1008.61 1008.87 1009.03 1009.11 1009.15 1009.22 1009.36 1009.58 1009.88 1010.24 1010.64 1011.04 1011.42 1011.79 1012.15 1012.51 1012.89 1013.29 1013.69 1014.06 1014.39 1014.66 1014.87
1011.20 1011.78 1012.05 1011.98 1011.61 1011.02 1010.31 1009.58 1008.96 1008.50 1008.25 1008.16 1008.18 1008.24 1008.25 1008.18 1008.01 1007.76 1007.49 1007.27 1007.17 1007.22 1007.41 1007.72 1008.09 1008.45 1008.74 1008.94 1009.05 1009.10 1009.13 1009.20 1009.34 1009.57 1009.89 1010.27 1010.68 1011.09 1011.50 1011.88 1012.25 1012.61 1012.99 1013.36 1013.73 1014.07 1014.36 1014.60 1014.77
1011.02 1011.38 1011.45 1011.25 1010.85 1010.32 1009.77 1009.27 1008.90 1008.69 1008.65 1008.71 1008.82 1008.90 1008.90 1008.79 1008.56 1008.27 1007.97 1007.74 1007.62 1007.64 1007.79 1008.05 1008.34 1008.62 1008.84 1008.97 1009.03 1009.05 1009.08 1009.16 1009.32 1009.59 1009.93 1010.34 1010.77 1011.21 1011.61 1011.99 1012.35 1012.70 1013.04 1013.38 1013.71 1014.01 1014.27 1014.47 1014.63
1010.76 1010.94 1010.88 1010.62 1010.23 1009.81 1009.42 1009.13 1008.97 1008.96 1009.06 1009.21 1009.35 1009.43 1009.39 1009.24 1008.99 1008.68 1008.38 1008.16 1008.04 1008.05 1008.17 1008.37 1008.59 1008.78 1008.92 1008.99 1009.00 1009.01 1009.04 1009.14 1009.34 1009.65 1010.03 1010.47 1010.92 1011.36 1011.77 1012.13 1012.46 1012.77 1013.07 1013.36 1013.64 1013.90 1014.13 1014.32 1014.48
1010.53 1010.60 1010.47 1010.21 1009.89 1009.59 1009.37 1009.26 1009.27 1009.38 1009.54 1009.71 1009.82 1009.85 1009.76 1009.56 1009.29 1008.99 1008.72 1008.52 1008.42 1008.43 1008.53 1008.67 1008.82 1008.94 1009.00 1009.01 1008.99 1008.99 1009.03 1009.17 1009.41 1009.76 1010.18 1010.65 1011.12 1011.55 1011.95 1012.28 1012.57 1012.84 1013.09 1013.33 1013.57 1013.80 1014.01 1014.19 1014.35
1010.41 1010.43 1010.31 1010.11 1009.91 1009.76 1009.69 1009.72 1009.83 1009.99 1010.15 1010.26 1010.30 1010.23 1010.06 1009.82 1009.53 1009.24 1009.00 1008.84 1008.76 1008.77 1008.84 1008.94 1009.02 1009.07 1009.07 1009.05 1009.01 1009.01 1009.09 1009.26 1009.54 1009.92 1010.37 1010.85 1011.33 1011.76 1012.14 1012.45 1012.70 1012.92 1013.13 1013.33 1013.53 1013.73 1013.93 1014.11 1014.27
1010.44 1010.48 1010.42 1010.33 1010.28 1010.29 1010.37 1010.50 1010.67 1010.81 1010.90 1010.91 1010.83 1010.64 1010.38 1010.08 1009.76 1009.48 1009.25 1009.11 1009.04 1009.04 1009.08 1009.13 1009.16 1009.16 1009.13 1009.09 1009.07 1009.09 1009.20 1009.40 1009.72 1010.12 1010.58 1011.07 1011.54 1011.97 1012.33 1012.62 1012.85 1013.04 1013.21 1013.38 1013.55 1013.73 1013.91 1014.08 1014.25
1010.61 1010.70 1010.74 1010.80 1010.92 1011.09 1011.29 1011.51 1011.69 1011.78 1011.78 1011.66 1011.44 1011.12 1010.76 1010.39 1010.03 1009.73 1009.50 1009.35 1009.26 1009.23 1009.22 1009.22 1009.21 1009.19 1009.16 1009.14 1009.15 1009.21 1009.36 1009.61 1009.94 1010.35 1010.81 1011.29 1011.75 1012.16 1012.51 1012.79 1013.01 1013.18 1013.34 1013.48 1013.63 1013.78 1013.95 1014.11 1014.26
1010.86 1011.02 1011.18 1011.40 1011.68 1012.00 1012.32 1012.59 1012.77 1012.80 1012.70 1012.45 1012.10 1011.67 1011.22 1010.77 1010.37 1010.03 1009.76 1009.56 1009.42 1009.32 1009.25 1009.21 1009.17 1009.15 1009.15 1009.17 1009.25 1009.38 1009.59 1009.87 1010.22 1010.62 1011.06 1011.51 1011.94 1012.33 1012.67 1012.95 1013.17 1013.35 1013.49 1013.62 1013.75 1013.88 1014.01 1014.16 1014.30
1011.11 1011.34 1011.63 1012.00 1012.43 1012.88 1013.29 1013.61 1013.77 1013.75 1013.56 1013.21 1012.76 1012.24 1011.72 1011.21 1010.76 1010.36 1010.03 1009.75 1009.52 1009.34 1009.19 1009.09 1009.04 1009.05 1009.10 1009.21 1009.38 1009.60 1009.87 1010.19 1010.55 1010.94 1011.34 1011.75 1012.14 1012.51 1012.84 1013.12 1013.35 1013.53 1013.68 1013.80 1013.90 1014.00 1014.10 1014.21 1014.33
1011.30 1011.60 1012.00 1012.50 1013.06 1013.62 1014.10 1014.44 1014.58 1014.52 1014.26 1013.85 1013.34 1012.78 1012.21 1011.67 1011.17 1010.72 1010.30 1009.93 1009.59 1009.30 1009.07 1008.92 1008.87 1008.91 1009.05 1009.27 1009.56 1009.89 1010.24 1010.61 1010.97 1011.33 1011.69 1012.04 1012.39 1012.72 1013.03 1013.31 1013.55 1013.75 1013.90 1014.01 1014.09 1014.15 1014.22 1014.30 1014.39
1011.37 1011.74 1012.24 1012.85 1013.52 1014.15 1014.68 1015.02 1015.15 1015.05 1014.75 1014.31 1013.78 1013.21 1012.64 1012.09 1011.57 1011.07 1010.58 1010.10 1009.65 1009.25 1008.94 1008.75 1008.71 1008.81 1009.05 1009.40 1009.82 1010.27 1010.71 1011.13 1011.50 1011.83 1012.13 1012.42 1012.72 1013.01 1013.30 1013.58 1013.82 1014.03 1014.18 1014.28 1014.34 1014.37 1014.40 1014.44 1014.51
1011.28 1011.74 1012.35 1013.06 1013.81 1014.50 1015.04 1015.38 1015.48 1015.34 1015.01 1014.56 1014.04 1013.49 1012.96 1012.44 1011.92 1011.40 1010.85 1010.29 1009.74 1009.25 1008.88 1008.65 1008.63 1008.80 1009.14 1009.63 1010.18 1010.76 1011.29 1011.76 1012.14 1012.45 1012.70 1012.94 1013.17 1013.42 1013.68 1013.95 1014.19 1014.40 1014.55 1014.64 1014.68 1014.69 1014.69 1014.71 1014.76
1011.04 1011.62 1012.35 1013.17 1013.99 1014.71 1015.25 1015.56 1015.60 1015.42 1015.06 1014.61 1014.11 1013.62 1013.15 1012.68 1012.21 1011.69 1011.13 1010.52 1009.92 1009.37 1008.95 1008.71 1008.71 1008.94 1009.39 1010.00 1010.68 1011.37 1011.99 1012.51 1012.91 1013.20 1013.41 1013.59 1013.77 1013.98 1014.21 1014.46 1014.70 1014.90 1015.05 1015.14 1015.17 1015.17 1015.15 1015.15 1015.20
1010.65 1011.39 1012.27 1013.21 1014.11 1014.86 1015.39 1015.64 1015.62 1015.37 1014.97 1014.51 1014.04 1013.60 1013.20 1012.82 1012.42 1011.97 1011.43 1010.83 1010.22 1009.65 1009.21 1008.98 1009.00 1009.30 1009.83 1010.53 1011.31 1012.09 1012.79 1013.36 1013.77 1014.05 1014.24 1014.38 1014.52 1014.68 1014.88 1015.11 1015.34 1015.54 1015.69 1015.78 1015.81 1015.81 1015.79 1015.80 1015.86
1010.12 1011.05 1012.12 1013.21 1014.20 1014.98 1015.49 1015.68 1015.58 1015.26 1014.81 1014.32 1013.86 1013.47 1013.16 1012.88 1012.59 1012.22 1011.77 1011.23 1010.66 1010.12 1009.70 1009.49 1009.55 1009.88 1010.46 1011.22 1012.06 1012.90 1013.65 1014.26 1014.69 1014.97 1015.14 1015.26 1015.37 1015.50 1015.68 1015.88 1016.10 1016.30 1016.45 1016.54 1016.58 1016.59 1016.59 1016.61 1016.69
1009.45 1010.61 1011.89 1013.14 1014.24 1015.07 1015.56 1015.70 1015.53 1015.12 1014.60 1014.08 1013.63 1013.29 1013.05 1012.88 1012.71 1012.48 1012.16 1011.73 1011.25 1010.78 1010.42 1010.24 1010.33 1010.68 1011.27 1012.05 1012.92 1013.77 1014.54 1015.16 1015.60 1015.89 1016.06 1016.17 1016.26 1016.38 1016.54 1016.73 1016.93 1017.12 1017.27 1017.37 1017.42 1017.45 1017.47 1017.52 1017.62
1008.66 1010.05 1011.53 1012.95 1014.16 1015.05 1015.55 1015.66 1015.43 1014.96 1014.38 1013.82 1013.37 1013.07 1012.91 1012.86 1012.82 1012.75 1012.58 1012.31 1011.96 1011.60 1011.32 1011.20 1011.30 1011.66 1012.24 1012.99 1013.83 1014.67 1015.42 1016.03 1016.48 1016.78 1016.96 1017.07 1017.16 1017.27 1017.41 1017.58 1017.77 1017.94 1018.09 1018.19 1018.25 1018.30 1018.35 1018.42 1018.55
1007.78 1009.34 1010.99 1012.56 1013.88 1014.85 1015.38 1015.49 1015.23 1014.73 1014.13 1013.55 1013.11 1012.85 1012.77 1012.82 1012.93 1013.02 1013.02 1012.93 1012.74 1012.52 1012.34 1012.29 1012.42 1012.76 1013.30 1013.99 1014.77 1015.56 1016.27 1016.86 1017.29 1017.59 1017.78 1017.91 1018.01 1018.12 1018.25 1018.40 1018.56 1018.71 1018.84 1018.94 1019.00 1019.06 1019.13 1019.22 1019.36
1006.82 1008.49 1010.24 1011.91 1013.32 1014.36 1014.95 1015.10 1014.88 1014.39 1013.81 1013.26 1012.85 1012.64 1012.63 1012.79 1013.03 1013.27 1013.45 1013.54 1013.53 1013.46 1013.40 1013.42 1013.57 1013.90 1014.39 1015.01 1015.71 1016.42 1017.07 1017.61 1018.03 1018.33 1018.54 1018.68 1018.79 1018.89 1019.01 1019.14 1019.28 1019.40 1019.49 1019.57 1019.62 1019.68 1019.75 1019.85 1019.99
1005.86 1007.51 1009.27 1010.97 1012.43 1013.54 1014.20 1014.43 1014.29 1013.89 1013.39 1012.91 1012.57 1012.44 1012.51 1012.76 1013.11 1013.50 1013.83 1014.08 1014.24 1014.32 1014.39 1014.49 1014.69 1015.01 1015.45 1016.00 1016.62 1017.24 1017.82 1018.31 1018.71 1019.01 1019.22 1019.37 1019.49 1019.60 1019.71 1019.81 1019.91 1019.98 1020.04 1020.08 1020.11 1020.14 1020.20 1020.28 1020.41
1004.95 1006.45 1008.12 1009.76 1011.22 1012.37 1013.12 1013.47 1013.47 1013.22 1012.86 1012.51 1012.28 1012.24 1012.40 1012.73 1013.17 1013.66 1014.12 1014.51 1014.81 1015.04 1015.23 1015.43 1015.67 1016.01 1016.43 1016.92 1017.46 1018.01 1018.52 1018.97 1019.34 1019.63 1019.84 1020.01 1020.14 1020.24 1020.33 1020.41 1020.46 1020.49 1020.50 1020.49 1020.48 1020.47 1020.49 1020.55 1020.64
1004.13 1005.40 1006.86 1008.37 1009.76 1010.92 1011.75 1012.24 1012.43 1012.38 1012.22 1012.05 1011.97 1012.04 1012.29 1012.68 1013.19 1013.74 1014.29 1014.78 1015.20 1015.55 1015.86 1016.15 1016.47 1016.84 1017.26 1017.73 1018.22 1018.72 1019.18 1019.59 1019.93 1020.21 1020.43 1020.60 1020.73 1020.83 1020.91 1020.95 1020.97 1020.95 1020.91 1020.85 1020.78 1020.73 1020.71 1020.72 1020.77
Thickness
5788 5788 5786 5777 5756 5736 5735 5748 5760 5764 5770 5782 5787 5783 5777 5773 5767 5766 5790 5799 5798 5795 5791 5788 5785 5782 5780 5778 5776 5774 5773 5771 5770 5768 5767 5765 5764 5762 5761 5759 5758 5757 5755 5754 5753 5752 5750 5749 5747
5786 5785 5777 5761 5738 5722 5732 5751 5757 5765 5776 5783 5785 5783 5778 5777 5784 5786 5790 5795 5795 5793 5789 5786 5783 5780 5778 5776 5774 5772 5771 5769 5767 5765 5764 5762 5761 5759 5758 5757 5755 5754 5752 5751 5750 5749 5747 5746 5745
5784 5781 5763 5745 5729 5724 5738 5756 5762 5771 5780 5781 5778 5781 5778 5777 5784 5787 5792 5793 5791 5788 5786 5783 5781 5778 5776 5773 5771 5769 5768 5766 5764 5763 5761 5759 5758 5756 5755 5754 5752 5751 5749 5748 5747 5746 5745 5743 5742
5777 5766 5753 5736 5732 5738 5747 5760 5766 5768 5775 5781 5777 5772 5778 5786 5788 5790 5791 5791 5787 5784 5782 5780 5778 5775 5773 5771 5769 5767 5765 5763 5761 5760 5758 5757 5755 5753 5752 5751 5749 5748 5747 5746 5744 5743 5742 5741 5739
5768 5751 5735 5724 5731 5744 5755 5765 5769 5766 5769 5774 5774 5767 5770 5782 5788 5789 5788 5785 5782 5780 5778 5776 5774 5772 5770 5768 5766 5764 5762 5760 5759 5757 5755 5754 5752 5750 5749 5747 5746 5745 5744 5743 5742 5740 5739 5738 5737
5750 5739 5720 5717 5730 5746 5758 5766 5768 5766 5768 5772 5770 5764 5765 5778 5781 5782 5783 5780 5778 5776 5774 5772 5770 5768 5766 5765 5763 5761 5759 5757 5756 5754 5752 5751 5749 5748 5746 5744 5743 5742 5741 5740 5739 5738 5737 5736 5735
5742 5729 5720 5724 5728 5740 5757 5767 5764 5762 5763 5768 5772 5760 5763 5771 5777 5778 5777 5775 5773 5771 5769 5767 5766 5764 5762 5761 5759 5757 5755 5754 5752 5751 5750 5748 5746 5745 5743 5742 5741 5739 5738 5737 5736 5735 5734 5733 5732
5748 5731 5723 5721 5727 5738 5757 5763 5766 5764 5763 5774 5773 5759 5757 5768 5774 5772 5770 5769 5767 5766 5764 5762 5761 5760 5759 5757 5756 5754 5752 5750 5748 5747 5746 5744 5743 5742 5740 5739 5738 5737 5735 5734 5733 5732 5731 5730 5729
5749 5723 5714 5725 5732 5742 5755 5756 5762 5769 5766 5767 5769 5767 5768 5770 5768 5765 5762 5761 5760 5759 5758 5758 5757 5756 5755 5754 5753 5751 5748 5746 5745 5743 5742 5740 5739 5738 5737 5735 5734 5733 5732 5731 5730 5729 5728 5727 5726
5737 5718 5727 5741 5747 5748 5752 5753 5756 5758 5755 5756 5759 5763 5766 5764 5761 5757 5755 5753 5753 5753 5753 5753 5752 5752 5751 5751 5749 5747 5745 5743 5742 5740 5738 5737 5735 5734 5733 5732 5730 5729 5728 5728 5727 5726 5725 5724 5723
5738 5729 5740 5748 5753 5752 5749 5751 5756 5751 5745 5752 5753 5755 5757 5755 5754 5752 5752 5751 5750 5750 5749 5749 5748 5748 5747 5746 5745 5743 5741 5740 5738 5736 5735 5733 5732 5730 5729 5728 5726 5725 5725 5724 5723 5722 5721 5721 5720
5737 5740 5745 5749 5754 5751 5749 5750 5748 5749 5751 5760 5760 5757 5753 5750 5749 5749 5748 5747 5747 5746 5745 5744 5744 5743 5742 5742 5741 5740 5738 5736 5734 5733 5731 5730 5728 5726 5725 5724 5722 5721 5720 5719 5719 5718 5717 5716 5716
5735 5739 5746 5750 5750 5750 5749 5746 5745 5746 5755 5758 5757 5752 5749 5747 5746 5746 5746 5744 5742 5741 5740 5740 5739 5739 5738 5736 5735 5734 5733 5732 5730 5729 5728 5727 5725 5723 5721 5720 5718 5717 5716 5715 5714 5713 5712 5712 5712
5739 5739 5742 5745 5746 5747 5743 5742 5741 5743 5750 5749 5748 5745 5745 5744 5743 5741 5740 5740 5739 5738 5737 5736 5735 5734 5733 5732 5731 5729 5728 5727 5726 5725 5724 5722 5721 5719 5718 5716 5714 5713 5713 5712 5710 5709 5708 5708 5707
5739 5734 5735 5740 5742 5742 5740 5730 5734 5742 5743 5739 5739 5739 5739 5739 5739 5738 5738 5737 5736 5735 5733 5731 5731 5730 5729 5728 5727 5725 5724 5722 5722 5721 5720 5718 5716 5715 5714 5712 5711 5709 5708 5707 5706 5705 5704 5703 5702
5731 5722 5716 5731 5736 5737 5729 5715 5732 5739 5735 5730 5731 5732 5732 5733 5734 5735 5735 5733 5731 5730 5728 5728 5728 5725 5724 5723 5722 5721 5718 5717 5718 5717 5715 5714 5712 5711 5710 5708 5707 5705 5704 5703 5701 5700 5699 5698 5696
5712 5704 5708 5720 5731 5730 5722 5714 5728 5732 5729 5724 5725 5726 5727 5727 5728 5730 5731 5729 5727 5726 5724 5723 5722 5721 5720 5718 5717 5716 5715 5714 5713 5712 5711 5710 5708 5707 5706 5704 5702 5701 5699 5698 5697 5695 5694 5692 5690
5704 5703 5706 5710 5723 5721 5713 5713 5722 5726 5723 5720 5720 5721 5721 5722 5724 5726 5726 5725 5724 5722 5721 5720 5717 5717 5716 5714 5713 5711 5711 5710 5709 5708 5707 5706 5705 5703 5702 5700 5698 5697 5694 5693 5692 5690 5688 5687 5685
5715 5708 5704 5711 5722 5714 5710 5711 5717 5720 5717 5715 5715 5716 5717 5718 5722 5722 5721 5721 5719 5717 5716 5715 5712 5711 5710 5709 5708 5706 5705 5705 5704 5704 5703 5702 5701 5699 5698 5696 5694 5692 5690 5688 5687 5685 5683 5681 5680
5713 5705 5703 5711 5719 5712 5706 5707 5715 5717 5715 5716 5715 5715 5714 5714 5714 5715 5715 5716 5715 5714 5713 5711 5709 5708 5707 5707 5706 5704 5702 5701 5700 5699 5698 5698 5697 5695 5694 5692 5690 5688 5686 5684 5682 5680 5678 5676 5675
5712 5705 5706 5705 5711 5711 5703 5699 5706 5713 5715 5714 5714 5714 5713 5713 5711 5710 5709 5710 5710 5709 5709 5709 5707 5706 5705 5704 5702 5700 5697 5696 5695 5694 5693 5693 5693 5691 5689 5688 5686 5684 5682 5680 5678 5677 5674 5671 5670
5707 5719 5716 5709 5698 5688 5695 5678 5698 5704 5706 5709 5709 5708 5709 5709 5708 5707 5706 5705 5705 5706 5706 5706 5705 5703 5702 5700 5699 5697 5694 5692 5691 5689 5689 5688 5688 5687 5686 5684 5682 5680 5678 5676 5675 5673 5671 5669 5666
5719 5723 5715 5706 5694 5684 5686 5676 5687 5699 5698 5703 5707 5707 5708 5708 5707 5706 5706 5705 5704 5704 5703 5703 5701 5699 5699 5697 5696 5694 5692 5690 5688 5686 5685 5684 5683 5683 5682 5680 5678 5677 5675 5674 5672 5670 5668 5666 5664
5724 5713 5702 5690 5681 5672 5682 5675 5679 5691 5698 5703 5707 5708 5708 5707 5706 5705 5705 5703 5701 5701 5700 5699 5697 5696 5695 5694 5693 5691 5689 5686 5684 5683 5681 5679 5679 5679 5678 5676 5675 5674 5672 5670 5669 5667 5665 5663 5661
5714 5693 5672 5669 5661 5667 5683 5678 5682 5701 5705 5706 5707 5707 5708 5707 5704 5702 5701 5700 5699 5697 5697 5696 5695 5692 5691 5689 5688 5687 5685 5683 5681 5680 5678 5676 5675 5675 5675 5673 5672 5671 5670 5668 5666 5665 5662 5661 5658
5706 5695 5671 5661 5658 5665 5678 5675 5691 5706 5708 5709 5708 5707 5707 5705 5703 5701 5700 5699 5697 5696 5694 5693 5691 5689 5688 5686 5684 5683 5681 5680 5678 5677 5675 5674 5673 5673 5672 5671 5669 5669 5667 5666 5663 5662 5659 5658 5656
5701 5692 5692 5672 5667 5660 5668 5680 5694 5704 5704 5704 5704 5703 5702 5702 5701 5699 5698 5697 5695 5694 5691 5690 5689 5686 5685 5683 5681 5680 5678 5677 5675 5674 5673 5672 5671 5670 5669 5668 5667 5666 5664 5663 5660 5658 5656 5654 5652
5710 5695 5678 5668 5658 5655 5667 5673 5679 5693 5695 5698 5699 5699 5699 5698 5697 5696 5695 5694 5693 5691 5689 5687 5685 5683 5682 5680 5679 5678 5675 5674 5673 5671 5669 5668 5667 5667 5666 5665 5664 5662 5661 5659 5657 5655 5653 5650 5649
5696 5689 5678 5666 5664 5657 5653 5668 5696 5697 5697 5696 5697 5698 5697 5697 5695 5693 5692 5691 5690 5688 5686 5684 5682 5680 5679 5677 5675 5674 5672 5671 5670 5668 5666 5664 5664 5664 5662 5662 5661 5659 5658 5656 5654 5652 5649 5647 5645
5702 5691 5678 5667 5664 5659 5655 5669 5703 5701 5699 5698 5697 5697 5696 5695 5693 5691 5689 5687 5685 5684 5683 5682 5680 5678 5677 5675 5672 5671 5669 5667 5665 5664 5663 5662 5661 5660 5660 5659 5658 5656 5654 5653 5651 5648 5646 5643 5641